Погода в Исакове

Россия / Смоленская область     55°10′28″N   34°39′17″E
темп.,
°C
ветер,
м/с
пор.,
м/с
влажн.,
%
обл.,
%
осадки,
мм/ч
давл.,
гПа
погр.,
м
13 апреля, вт
вт1300:00+9вюв31293100 0.0 1024311
03:00+8юв31093100 0.0 1023242
06:00+7юв399296 0.0 1023157
09:00+12ююв4974100 0.0 1023296
12:00+17ююв4754100 0.0 1022723
15:00+19ююв584689 0.0 10211543
18:00+18ююв5105170 0.0 1019527
21:00+12юв3127093 0.0 1020247
14 апреля, ср
ср1400:00+11ююв4136893 0.0 1019314
03:00+11юв3875100 0.0 1018199
06:00+10ююв4108535 0.0 1018315
09:00+11ююв4885100 0.0 1018410
12:00+15ю576478 0.4 10171296
15:00+16ю5758100 1.3 10171374
18:00+15ю2567100 0.1 1016195
21:00+11ю1186100 0.7 101712
15 апреля, чт
чт1500:00+10ссв1185100 0.3 101611
03:00+9в2391100 0.7 101748
06:00+9всв3582100 0.3 101691
09:00+12всв2366100 0.3 1016204
12:00+15в3353100 0.0 1015948
15:00+12вюв4866100 0.1 1015695
18:00+13в58689 0.3 1015871
21:00+10всв398341 1.4 1016198
16 апреля, пт
пт1600:00+9св51184100 0.1 1016336
03:00+8св5119238 0.1 1017400
06:00+6св5129497 0.1 1017444
09:00+8всв598398 0.1 1018574
12:00+12всв6869100 0.1 10181112
15:00+14всв796549 0.1 10171231
18:00+12всв6117594 0.7 1018989
21:00+9всв61285100 0.9 1019600
17 апреля, сб
сб1700:00+9в51292100 0.9 1020559
03:00+8всв4129099 1.1 1020541
06:00+6св4109399 0.0 1022474
09:00+9всв598281 0.0 1023601
12:00+13всв686756 0.0 1022941
15:00+15всв795823 0.0 10221217
18:00+14всв611615 0.0 10231181
21:00+10всв6146738 0.0 1025637